Location: Vlissingen
(51.4500°N, 3.5830°E)
Time: 12:10:16
(UTC+01:00)

N. Korean satellite - Pass Details

Date: 04 December 2021
Orbit: 447 x 491 km, 97.3° (Epoch: 21 January)

Event Time Altitude Azimuth Distance (km) Brightness Sun altitude
Rises 05:48:22 0° 18° (NNE) 2,475 10.3 -24.5°
Reaches altitude 10° 05:50:29 10° 25° (NNE) 1,592 9.4 -24.2°
Maximum altitude 05:53:46 45° 99° (E) 627 7.5 -23.7°
Drops below altitude 10° 05:57:00 10° 174° (S) 1,572 9.3 -23.2°
Sets 05:59:05 0° 180° (S) 2,438 10.2 -22.9°
